Portada
METAR-TAF:

METAR-TAF

Aeroports :

Ceduna, Austràlia

latitud: 32-07-50S, longitud: 133-42-35E, altitud: 23 m

Observació

L'informe es va fer fa 49 minuts, a les 20:00 UTC
Vent 5 kt del Est
Temperatura 11°C
Humitat 94%
Pressió 1018 hPa

METAR: YCDU 192000Z AUTO 09005KT //// // ////// 11/10 Q1018

Hora: 07:19 (20:49 UTC)


TAF: manca

Observacions i pronòstics meteorològics de més de 4000 aeroports (METAR i TAF).

Les estacions disponibles són els punts grocs i vermells al mapa.

Posi el ratolí al punt desitjat per veure el nom de l'estació.

Feu clic per veure les observacions i els pronòstics meteorològics.

Per canviar el mapa: feu clic els botons verds amb una creu de color negre per apropar; al botó verd amb un guió per allunyar la imatge; o en les fletxes verdes per a mapes adjacents.


METAR-TAF: